Overview Statistics Trail Chart Weather Telemetry Raw packets
 

This is the latest recevied weather packets stored in our database for station/object Dunnningn. If no packets are shown the sender has not sent any weather packets the latest 10 day(s).

<< 1 2 3 4 5 6 7 >>
Time Temp. Humidity Pressure Rain* Wind** Luminosity Snow
1788508932 21.67° C 62% 1019.7 hPa 0 mm - - -
1788507130 18.33° C 72% 1019.8 hPa 0 mm - - -
1788505329 16.11° C 78% 1019.9 hPa 0 mm - - -
1788503529 14.44° C 81% 1020.1 hPa 0 mm - - -
1788501738 13.89° C 81% 1020.1 hPa 0 mm - - -
1788499929 13.33° C 80% 1020.4 hPa 0 mm - - -
1788498129 13.89° C 79% 1020.4 hPa 0 mm - - -
1788496329 13.89° C 79% 1020.4 hPa 0 mm - - -
1788494531 13.89° C 80% 1020.7 hPa 0 mm - - -
1788492730 13.89° C 80% 1020.9 hPa 0 mm - - -
1788490930 13.89° C 80% 1021.1 hPa 0 mm - - -
1788489130 14.44° C 78% 1021.3 hPa 0 mm - - -
1788487330 14.44° C 78% 1021.5 hPa 0 mm - - -
1788485530 14.44° C 78% 1021.6 hPa 0 mm - - -
1788483730 14.44° C 78% 1021.9 hPa 0 mm - - -
1788481931 14.44° C 77% 1022 hPa 0 mm - - -
1788480131 14.44° C 76% 1022.2 hPa 0 mm - - -
1788478331 15° C 75% 1022.4 hPa 0 mm - - -
1788476531 15.56° C 74% 1022.5 hPa 0 mm - - -
1788474731 15.56° C 73% 1022.6 hPa 0 mm - - -
1788472931 16.11° C 72% 1022.5 hPa 0 mm - - -
1788471131 16.67° C 69% 1022.5 hPa 0 mm - - -
1788469331 17.22° C 67% 1022.5 hPa 0 mm - - -
1788467531 17.78° C 65% 1022.7 hPa 0 mm - - -
1788465730 18.89° C 63% 1022.8 hPa 0 mm - - -

* Rain since midnight (hover to see other rain measurements)
** Current wind speed in m/s (hover to see current wind gust speed)